Regional Weather Roundup
Issued by NWS

Home | Current Version | Previous Version | Text Only | Print | Product List | Glossary Off
Versions: 1 2 3 4 5 6 7 8 9 10 11 12 13 14 15 16 17 18 19 20 21 22 23 24 25 26 27 28 29 30 31 32 33 34 35 36 37 38 39 40 41 42 43 44 45 46 47 48 49 50

000
ASUS43 KMPX 251001
RWRMN
WEATHER ROUNDUP FOR MINNESOTA
NATIONAL WEATHER SERVICE TWIN CITIES/CHANHASSEN MN
400 AM CST SUN JAN 25 2015


NOTE: "FAIR" INDICATES FEW OR NO CLOUDS BELOW 12,000 FEET WITH NO
SIGNIFICANT WEATHER AND/OR OBSTRUCTIONS TO VISIBILITY. N/A MEANS
CURRENT SKY AND/OR WEATHER CONDITIONS ARE NOT AVAILABLE.

MNZ060>063-068>070-251100-
   Twin Cities Metro

CITY           SKY/WX    TMP DP  RH WIND       PRES   REMARKS
TWIN CITIES    CLOUDY    30  23  75 N16       29.81R WCI  19
ST PAUL        CLOUDY    30  23  75 N14G21    29.83R WCI  19
CRYSTAL        CLOUDY    28  21  75 N10G20    29.82R WCI  19
BLAINE         CLOUDY    28  21  74 N9        29.83R WCI  20
LAKEVILLE      CLOUDY    28  27  93 NE12G18   29.78R WCI  18
EDEN PRAIRIE   CLOUDY    30  23  75 NE16G22   29.79R WCI  19
SOUTH ST PAUL  CLOUDY    31  24  75 NE10      29.81R WCI  22
LAKE ELMO      CLOUDY    30  23  74 NE9       29.82R WCI  22
$$
MNZ001>005-007-008-013>017-022>024-027-028-251100-
   Northwest Minnesota

CITY           SKY/WX    TMP DP  RH WIND       PRES   REMARKS
BEMIDJI        CLOUDY    15   9  77 N5        29.90S WCI   7
HALLOCK        CLEAR     12   7  79 E6        30.00S WCI   3
ROSEAU         PTCLDY    10   5  79 NE12      29.98S WCI  -4
WARROAD        MOCLDY     9   3  78 NE12      29.99S WCI  -6
THIEF RVR FALL PTCLDY    16   9  73 NE7       29.95R WCI   6
CROOKSTON      CLOUDY    18  10  73 NE7       29.97R WCI   8
FOSSTON        CLOUDY    14   9  79 NE8       29.92R WCI   3
DETROIT LAKES  CLOUDY    25  23  93 N5        29.88R WCI  19
MOORHEAD       MOCLDY    23  19  86 N9        29.93R WCI  13
PARK RAPIDS    CLOUDY    22  13  68 NE7       29.86S WCI  13
MAHNOMEN       CLOUDY    19  14  80 N8        29.89R WCI   9
$$
MNZ006-009>011-018-025>026-251100-
   North Central Minnesota

CITY           SKY/WX    TMP DP  RH WIND       PRES   REMARKS
BAUDETTE       CLOUDY     9  -1  64 E8        29.97R WCI  -3
FLAG ISLAND    CLOUDY     7   0  72 E6        30.00R WCI  -3
INTL FALLS     CLOUDY     4  -4  69 E8        29.99R WCI  -9
WASKISH        MOCLDY    10   3  72 NE9       29.95S WCI  -2
BIG FORK       CLOUDY    12   5  73 NE5       29.93R WCI   4
LONGVILLE      CLOUDY    21  16  79 NE5       29.89R WCI  15
GRAND RAPIDS   CLOUDY    21  14  73 E3        29.89R
CRANE LAKE     MOCLDY     1  -6  71 CALM      30.02S
ORR            CLOUDY     7  -2  66 CALM      29.93S
COOK           CLOUDY     9   0  66 E6        29.95R WCI  -1
WALKER         CLOUDY    19  11  73 NE5       29.89R WCI  12
$$
MNZ012-019>021-037-251100-
   Northeast Minnesota

CITY           SKY/WX    TMP DP  RH WIND       PRES   REMARKS
DULUTH         FLURRIES  18  12  77 E14       29.90R WCI   4
ELY            PTCLDY    -2  -6  84 CALM      29.97R
HIBBING        CLOUDY    19   9  65 NE5       29.91R WCI  12
EVELETH        MOCLDY    18  10  73 NE7       29.93R WCI   8
DULUTH HARBOR  FLURRIES  23  18  80 NE20      29.96R WCI   8
TWO HARBORS    FLURRIES  19  12  73 NE9       29.93R WCI   9
SILVER BAY     FLURRIES  14   9  79 N7        29.95R WCI   4
GRAND MARAIS     N/A      8  -1  66 N3        30.03R
G MARAIS ARPRT FLURRIES  -4 -11  71 N8        29.92R WCI -19
$$
MNZ029>031-032-039>041-046>048-054>057-064-251100-
   West Central Minnesota

CITY           SKY/WX    TMP DP  RH WIND       PRES   REMARKS
FERGUS FALLS   CLOUDY    28  27  93 N3        29.90R
WHEATON        CLOUDY    27  25  93 NW10G16   29.90R WCI  17
MORRIS         CLOUDY    32  28  86 N9        29.84R WCI  24
ALEXANDRIA     CLOUDY    30  26  85 N8        29.84R WCI  22
ELBOW LAKE     CLOUDY    30  27  87 N7        29.86R WCI  23
WADENA         CLOUDY    25  18  74 N9        29.86R WCI  15
GLENWOOD       CLOUDY    30  27  86 NE10      29.84R WCI  21
APPLETON       CLOUDY    34  30  86 N12       29.84R WCI  25
BENSON         CLOUDY    34  30  86 NE7       29.84R WCI  28
ORTONVILLE     MIX PCPN  30  28  93 N12       29.86R WCI  21
MADISON        FLURRIES  36  36 100 N14       29.84R
WILLMAR        CLOUDY    34  30  86 NE9       29.83R WCI  26
$$
MNZ033>034-036-042>043-049>051-058-059-251100-
   Central Minnesota

CITY           SKY/WX    TMP DP  RH WIND       PRES   REMARKS
ST CLOUD       CLOUDY    27  21  78 NE7       29.85R WCI  19
SAUK CENTRE    CLOUDY    28  25  87 NE10      29.85R WCI  19
PAYNESVILLE    CLOUDY    27  26  93 N9        29.83R WCI  18
AITKIN         CLOUDY    25  16  68 E8        29.88R WCI  16
PINE RIVER     CLOUDY    25  18  74 N7        29.91R WCI  17
BRAINERD       CLOUDY    24  18  77 NE9       29.88R WCI  14
STAPLES        CLOUDY    27  23  86 NE7       29.86R WCI  19
LONG PRAIRIE   CLOUDY    28  23  80 NE8       29.85R WCI  20
LITTLE FALLS   CLOUDY    27  19  74 NE5       29.87R WCI  21
LITCHFIELD     CLOUDY    30  28  93 NE10      29.83R WCI  21
BUFFALO        CLOUDY    27  22  80 N12       29.84R WCI  17
MAPLE LAKE     MOCLDY    28  24  84 NE13      29.84R WCI  17
$$
MNZ037-044-045-052-053-251100-
   East Central Minnesota

CITY           SKY/WX    TMP DP  RH WIND       PRES   REMARKS
PRINCETON      CLOUDY    27  21  80 NE8       29.85R WCI  18
MORA           CLOUDY    23  16  74 NE9G16    29.89R WCI  13
CAMBRIDGE      MOCLDY    25  16  68 NE9       29.85R WCI  15
RUSH CITY      CLOUDY    21  14  75 NE9       29.88R WCI  11
MOOSE LAKE     CLOUDY    21  14  73 NE8       29.89R WCI  12
HINCKLEY       CLOUDY    23  18  80 N12       29.88R WCI  12
CLOQUET        FLURRIES  19  12  73 E12G22    29.91R WCI   7
MCGREGOR       CLOUDY    21  16  79 E8        29.91R WCI  12
$$
MNZ071>073-080-081-089-090-097-098-251100-
   Southwest Minnesota

CITY           SKY/WX    TMP DP  RH WIND       PRES   REMARKS
MONTEVIDEO     CLOUDY    34  34 100 NE9       29.84R WCI  26
GRANITE FALLS  CLOUDY    32  32  99 N5        29.83R WCI  28
CANBY          LGT SNOW  33  32  98 N8        29.85R WCI  25
MARSHALL       CLOUDY    32  28  86 N12       29.82R WCI  23
REDWOOD FALLS  LGT SNOW  33  31  92 N9        29.80R FOG     WCI  25
OLIVIA         CLOUDY    30  30 100 NE13      29.81R WCI  20
PIPESTONE      LGT SNOW  34  32  93 N10G16    29.77R WCI  26
WINDOM         LGT SNOW  34  34 100 N14       29.74R WCI  24
WORTHINGTON    CLOUDY    32  30  93 N16       29.74R WCI  21
JACKSON        MIX PCPN  34  32  93 N17       29.72R WCI  23
TRACY          LGT SNOW  33  32  98 N12       29.78R WCI  24
SLAYTON        LGT SNOW  32  31  98 N15       29.77R WCI  22
$$
MNZ065>067-074>077-082>085-091>093-251100-
   South Central Minnesota

CITY           SKY/WX    TMP DP  RH WIND       PRES   REMARKS
MANKATO        CLOUDY    34  28  80 NE15      29.75R WCI  24
NEW ULM        CLOUDY    32  30  93 NE15      29.77R WCI  22
ST JAMES       LGT SNOW  34  34 100 N14       29.76R WCI  24
FAIRMONT       CLOUDY    34  28  80 N13       29.71R WCI  25
GLENCOE        CLOUDY    30  28  92 N9G16     29.80R WCI  22
FARIBAULT      FLURRIES  32  28  86 N18G25    29.75R WCI  20
OWATONNA       FLURRIES  34  30  86 N13       29.72R WCI  25
WASECA         FLURRIES  32  32 100 NE16      29.73R WCI  21
ALBERT LEA     LGT SNOW  34  34 100 NE12      29.68R WCI  25
$$
MNZ078>079-086>088-094>096-251100-
   Southeast Minnesota

CITY           SKY/WX    TMP DP  RH WIND       PRES   REMARKS
ROCHESTER      CLOUDY    33  30  88 NE14      29.70R WCI  23
RED WING       CLOUDY    30  25  80 NE8G20    29.77R WCI  23
STANTON        CLOUDY    32  27  81 NE14G22   29.75R WCI  22
DODGE CENTER   FLURRIES  32  30  93 NE17G24   29.70R WCI  21
WINONA         CLOUDY    34  32  93 NE8       29.74R WCI  27
AUSTIN         LGT SNOW  34  30  86 NE10      29.67R WCI  26
PRESTON        LGT SNOW  32  30  93 NE9       29.68R WCI  24
$$
ABBREVIATIONS USED IN REMARKS
   TC - TEMPERATURES IN CELSIUS
  WCI - WIND CHILL INDEX
   HX - HEAT INDEX
  VSB - VISIBILITY
$$


USA.gov is the U.S. government's official web portal to all federal, state and local government web resources and services.